Stündliche Wetter Bolshie Karnyshi

Heute, 28 November, Samstag

Zeit Temperatur Niederschläge Wind Luftdruck Luftfeuchtigkeit
00:00 -1°C° 0.2 mm 3 m/S 735 mmHg 93%
01:00 -1°C° 0.2 mm 2 m/S 736 mmHg 92%
02:00 -2°C° 0 mm 2 m/S 736 mmHg 94%
03:00 -2°C° 0 mm 2 m/S 736 mmHg 93%
04:00 -3°C° 0 mm 2 m/S 736 mmHg 93%
05:00 -3°C° 0 mm 2 m/S 736 mmHg 93%
06:00 -3°C° 0 mm 2 m/S 736 mmHg 93%
07:00 -3°C° 0 mm 2 m/S 737 mmHg 93%
08:00 -3°C° 0 mm 2 m/S 737 mmHg 92%
09:00 -3°C° 0 mm 2 m/S 737 mmHg 90%
10:00 -2°C° 0 mm 2 m/S 737 mmHg 87%
11:00 -2°C° 0 mm 2 m/S 738 mmHg 85%
12:00 -2°C° 0.2 mm 2 m/S 738 mmHg 87%
13:00 -2°C° 0.2 mm 2 m/S 738 mmHg 90%
14:00 -1°C° 0 mm 2 m/S 737 mmHg 94%
15:00 -2°C° 0.3 mm 2 m/S 737 mmHg 95%
16:00 0°C° 0.3 mm 1 m/S 737 mmHg 96%
17:00 0°C° 0.3 mm 1 m/S 737 mmHg 97%
18:00 0°C° 0.2 mm 1 m/S 738 mmHg 96%
19:00 -2°C° 0.2 mm 2 m/S 738 mmHg 96%
20:00 -2°C° 0.2 mm 2 m/S 738 mmHg 95%
21:00 -3°C° 0 mm 2 m/S 738 mmHg 94%
22:00 -3°C° 0 mm 2 m/S 738 mmHg 94%
23:00 -4°C° 0 mm 2 m/S 739 mmHg 93%

Morgen, 29 November, Sonntag

Zeit Temperatur Niederschläge Wind Luftdruck Luftfeuchtigkeit
00:00 -4°C° 0 mm 2 m/S 739 mmHg 93%
01:00 -3°C° 0 mm 2 m/S 739 mmHg 93%
02:00 -4°C° 0 mm 3 m/S 739 mmHg 93%
03:00 -4°C° 0 mm 3 m/S 739 mmHg 94%
04:00 -2°C° 0 mm 3 m/S 739 mmHg 95%
05:00 -2°C° 0 mm 3 m/S 739 mmHg 95%
06:00 -2°C° 0.1 mm 3 m/S 739 mmHg 95%
07:00 -2°C° 0.1 mm 3 m/S 739 mmHg 95%
08:00 -2°C° 0.1 mm 3 m/S 739 mmHg 95%
09:00 -2°C° 0 mm 3 m/S 739 mmHg 94%
10:00 -2°C° 0 mm 3 m/S 739 mmHg 92%
11:00 -1°C° 0 mm 3 m/S 739 mmHg 91%
12:00 -1°C° 0.3 mm 3 m/S 739 mmHg 93%
13:00 -2°C° 0.3 mm 3 m/S 739 mmHg 94%
14:00 -2°C° 0.3 mm 2 m/S 739 mmHg 96%
15:00 -2°C° 0.3 mm 2 m/S 739 mmHg 96%
16:00 -2°C° 0.3 mm 2 m/S 738 mmHg 97%
17:00 -2°C° 0.3 mm 2 m/S 738 mmHg 97%
18:00 -3°C° 0.2 mm 2 m/S 738 mmHg 97%
19:00 -1°C° 0.2 mm 1 m/S 739 mmHg 98%
20:00 -1°C° 0.2 mm 1 m/S 739 mmHg 98%
21:00 -1°C° 0.1 mm 1 m/S 739 mmHg 98%
22:00 -1°C° 0.1 mm 1 m/S 739 mmHg 98%
23:00 -1°C° 0.1 mm 1 m/S 739 mmHg 98%

übermorgen, 30 November, Montag

Zeit Temperatur Niederschläge Wind Luftdruck Luftfeuchtigkeit
00:00 -1°C° 0.1 mm 1 m/S 739 mmHg 98%
01:00 -1°C° 0.1 mm 1 m/S 739 mmHg 98%
02:00 -2°C° 0.1 mm 1 m/S 739 mmHg 98%
03:00 -2°C° 0 mm 1 m/S 739 mmHg 97%
04:00 -2°C° 0 mm 1 m/S 739 mmHg 97%
05:00 -2°C° 0 mm 1 m/S 739 mmHg 97%
06:00 -2°C° 0.1 mm 1 m/S 739 mmHg 97%
07:00 -2°C° 0.1 mm 1 m/S 740 mmHg 97%
08:00 -4°C° 0.1 mm 2 m/S 740 mmHg 97%
09:00 -3°C° 0 mm 2 m/S 740 mmHg 95%
10:00 -3°C° 0 mm 2 m/S 741 mmHg 94%
11:00 -3°C° 0 mm 2 m/S 741 mmHg 92%
12:00 -4°C° 0 mm 3 m/S 741 mmHg 91%
13:00 -2°C° 0 mm 3 m/S 741 mmHg 90%
14:00 -2°C° 0 mm 3 m/S 741 mmHg 89%
15:00 -4°C° 0 mm 3 m/S 741 mmHg 91%
16:00 -3°C° 0 mm 2 m/S 741 mmHg 93%
17:00 -4°C° 0 mm 2 m/S 741 mmHg 95%
18:00 -5°C° 0.1 mm 3 m/S 742 mmHg 95%
19:00 -5°C° 0.1 mm 3 m/S 742 mmHg 95%
20:00 -5°C° 0.1 mm 3 m/S 742 mmHg 95%
21:00 -5°C° 0 mm 3 m/S 742 mmHg 93%
22:00 -5°C° 0 mm 3 m/S 742 mmHg 92%
23:00 -5°C° 0 mm 3 m/S 743 mmHg 90%

1 Dezember, Dienstag

Zeit Temperatur Niederschläge Wind Luftdruck Luftfeuchtigkeit
00:00 -5°C° 0 mm 3 m/S 743 mmHg 90%
01:00 -5°C° 0 mm 3 m/S 743 mmHg 90%
02:00 -5°C° 0 mm 3 m/S 743 mmHg 90%
03:00 -5°C° 0 mm 3 m/S 743 mmHg 90%
04:00 -4°C° 0 mm 2 m/S 743 mmHg 90%
05:00 -4°C° 0 mm 2 m/S 743 mmHg 90%
06:00 -4°C° 0 mm 2 m/S 743 mmHg 90%
07:00 -5°C° 0 mm 2 m/S 743 mmHg 90%
08:00 -5°C° 0 mm 2 m/S 744 mmHg 91%
09:00 -5°C° 0 mm 3 m/S 744 mmHg 87%
10:00 -5°C° 0 mm 3 m/S 744 mmHg 84%
11:00 -4°C° 0 mm 3 m/S 744 mmHg 81%
12:00 -4°C° 0 mm 3 m/S 744 mmHg 81%
13:00 -4°C° 0 mm 3 m/S 744 mmHg 80%
14:00 -2°C° 0 mm 3 m/S 745 mmHg 79%
15:00 -4°C° 0 mm 3 m/S 745 mmHg 80%
16:00 -4°C° 0 mm 2 m/S 745 mmHg 82%
17:00 -4°C° 0 mm 2 m/S 745 mmHg 83%
18:00 -4°C° 0 mm 2 m/S 745 mmHg 85%
19:00 -5°C° 0 mm 2 m/S 745 mmHg 87%
20:00 -5°C° 0 mm 2 m/S 746 mmHg 89%
21:00 -6°C° 0 mm 2 m/S 746 mmHg 90%
22:00 -6°C° 0 mm 2 m/S 746 mmHg 91%
23:00 -6°C° 0 mm 2 m/S 746 mmHg 92%

2 Dezember, Mittwoch

Zeit Temperatur Niederschläge Wind Luftdruck Luftfeuchtigkeit
00:00 -6°C° 0 mm 2 m/S 746 mmHg 92%
01:00 -6°C° 0 mm 2 m/S 746 mmHg 92%
02:00 -6°C° 0 mm 2 m/S 746 mmHg 92%
03:00 -6°C° 0 mm 2 m/S 746 mmHg 92%
04:00 -7°C° 0 mm 2 m/S 746 mmHg 92%
05:00 -7°C° 0 mm 2 m/S 746 mmHg 92%
06:00 -7°C° 0 mm 2 m/S 746 mmHg 92%
07:00 -7°C° 0 mm 2 m/S 746 mmHg 92%
08:00 -7°C° 0 mm 2 m/S 746 mmHg 92%
09:00 -6°C° 0 mm 2 m/S 746 mmHg 90%
10:00 -5°C° 0 mm 2 m/S 746 mmHg 88%
11:00 -5°C° 0 mm 2 m/S 746 mmHg 86%
12:00 -4°C° 0 mm 2 m/S 745 mmHg 86%
13:00 -4°C° 0 mm 2 m/S 745 mmHg 86%
14:00 -4°C° 0 mm 2 m/S 745 mmHg 85%
15:00 -5°C° 0 mm 2 m/S 745 mmHg 88%
16:00 -5°C° 0 mm 2 m/S 744 mmHg 91%
17:00 -6°C° 0 mm 2 m/S 744 mmHg 93%
18:00 -6°C° 0 mm 2 m/S 744 mmHg 94%
19:00 -6°C° 0 mm 2 m/S 744 mmHg 95%
20:00 -6°C° 0 mm 2 m/S 744 mmHg 96%
21:00 -6°C° 0 mm 2 m/S 744 mmHg 97%
22:00 -6°C° 0 mm 2 m/S 744 mmHg 97%
23:00 -6°C° 0 mm 2 m/S 744 mmHg 97%

3 Dezember, Donnerstag

Zeit Temperatur Niederschläge Wind Luftdruck Luftfeuchtigkeit
00:00 -5°C° 0 mm 2 m/S 744 mmHg 97%
01:00 -5°C° 0 mm 2 m/S 744 mmHg 96%
02:00 -4°C° 0 mm 2 m/S 743 mmHg 96%
03:00 -4°C° 0 mm 2 m/S 743 mmHg 96%
04:00 -4°C° 0 mm 2 m/S 743 mmHg 95%
05:00 -4°C° 0 mm 2 m/S 743 mmHg 95%
06:00 -4°C° 0 mm 2 m/S 743 mmHg 94%
07:00 -4°C° 0 mm 2 m/S 743 mmHg 94%
08:00 -4°C° 0 mm 2 m/S 743 mmHg 94%
09:00 -3°C° 0 mm 2 m/S 743 mmHg 93%
10:00 -4°C° 0 mm 3 m/S 743 mmHg 92%
11:00 -4°C° 0 mm 3 m/S 743 mmHg 91%
12:00 -2°C° 0 mm 3 m/S 743 mmHg 91%
13:00 -2°C° 0 mm 3 m/S 742 mmHg 92%
14:00 -2°C° 0 mm 3 m/S 742 mmHg 92%
15:00 -2°C° 0 mm 3 m/S 742 mmHg 93%
16:00 -4°C° 0 mm 3 m/S 742 mmHg 94%
17:00 -4°C° 0 mm 3 m/S 741 mmHg 94%
18:00 -4°C° 0 mm 3 m/S 741 mmHg 94%
19:00 -4°C° 0 mm 3 m/S 741 mmHg 95%
20:00 -4°C° 0 mm 4 m/S 741 mmHg 95%
21:00 -3°C° 0 mm 4 m/S 741 mmHg 94%
22:00 -3°C° 0 mm 4 m/S 741 mmHg 94%
23:00 -3°C° 0 mm 4 m/S 741 mmHg 93%
Mehr zeigen

Wir brauchen deine Erlaubnis

Meteoprog und unser Service Anbieter werden persönliche Daten aufbewahren, so wie Cookies, Geräte Bezeichnung oder ähnliche Technologien von deinem Gerät und Prozess, so wie Persönliche Daten Inhalte und Werbungen, genauso wie social Media und den Verkehr zu analysieren.

  • Aufbewahrung und/oder Zugang zu deiner Geräte Informationen.

    Cookies, Geräte Bezeichnung oder andere Informationen, können aufbewahrt oder Zugang zu deinem Gerät erhalten, für den Grund, der oben angegeben wird.

  • Personalisierte Werbung und Inhalte, Messungen, Einblick in das Publikum und Produkt Entwicklung.

    Werbungen und Inhalte können personalisiert werden, basierend auf ein Profil. Mehr Daten können besser personalisierte Werbungen und Inhalte hinzufügen. Werbung und Inhalte können gezeigt und gemessen werden. Einblicke über das Publikum, welche die Werbung gesehen haben und den Inhalt, können abgeleitet werden. So wie Daten können genutzt werden, um es zu verbessern oder die Benutzer Erfahrung zu verbessern das System und die Software.

Wenn du “Ich stimme zu” klickst, erlaubst du uns, die Cookies zu benutzen die Geräte Bezeichnung, den Web oder ähnliche Technologien zu benutzen. Deine Settings, können in deinem Gerät bei deinem Browser geändert werden.

Für den bestimmten Zweck, berechtigten Interessen beruhen darauf, mehr als auf den Inhalt. Du kannst mehr darüber in unseren Privaten und Cookie Politik lesen.